Tracking 29040 objects as of 17-Jun-2024
HD Live streaming from Space Station
objects crossing your sky now

GUARDIAN

Track GUARDIAN now!
10-day predictions


NORAD ID: 52775
Int'l Code: 2022-057AV
Perigee: 481.7 km
Apogee: 493.2 km
Inclination: 97.6 °
Period: 94.2 minutes
Semi major axis: 6858 km
RCS: Unknown
Launch date: May 25, 2022
Source: Spain (SPN)
Launch site: AIR FORCE EASTERN TEST RANGE (AFETR)
Your satellite tracking list
Your tracking list is empty




NASA's NSSDC Master Catalog

Two Line Element Set (TLE):
1 52775U 22057AV  24168.57167512  .00017561  00000-0  63463-3 0  9992
2 52775  97.5742 291.0795 0008432 156.8186 203.3436 15.28492571114198
Source of the keplerian elements: AFSPC